Hourly Data Report for September 29, 2017

All times are specified in Local Standard Time (LST). Add 1 hour to adjust for Daylight Saving Time where and when it is observed.

KOUCHIBOUGUAC CS
NEW BRUNSWICK

46°47'00.000" N
65°01'00.000" W
21.00 m
8102328
71670
AKC

Download Data

Hourly Data (September 2017)
Hourly Data Report for September 29, 2017
Temp Definition
°C
Dew Point Temp Definition
°C
Rel Hum Definition
%
Wind Dir Definition
10's deg

Wind Spd Definition
km/h
Visibility Definition
km
Stn Press Definition
kPa
Hmdx Definition


Wind Chill Definition


Weather Definition


TIME
00:00 7.4 4.8 84 26 5   100.38     LegendNANA
01:00 6.5 4.5 87 26 5   100.41     LegendNANA
02:00 6.8 4.1 83 28 7   100.44     LegendNANA
03:00 5.9 3.8 87 27 7   100.43     LegendNANA
04:00 6.1 3.1 81 27 9   100.47     LegendNANA
05:00 5.1 2.8 85 27 5   100.50     LegendNANA
06:00 5.0 2.6 84 29 6   100.56     LegendNANA
07:00 5.4 2.7 83 29 7   100.66     LegendNANA
08:00 8.0 3.1 71 32 14   100.69     LegendNANA
09:00 9.7 3.1 64 32 21   100.75     LegendNANA
10:00 10.8 2.9 58 34 21   100.82     LegendNANA
11:00 10.8 2.8 58 33 20   100.85     LegendNANA
12:00 10.6 3.2 60 34 16   100.91     LegendNANA
13:00 10.6 3.4 61 33 14   100.97     LegendNANA
14:00 10.4 3.9 64 34 18   101.04     LegendNANA
15:00 11.5 3.5 58 36 13   101.08     LegendNANA
16:00 10.5 4.9 68 1 13   101.12     LegendNANA
17:00 9.4 5.4 76 36 11   101.22     LegendNANA
18:00 9.2 5.5 78 35 7   101.30     LegendNANA
19:00 7.7 5.6 87 34 8   101.39     LegendNANA
20:00 6.5 5.1 91 31 5   101.48     LegendNANA
21:00 5.2 3.8 91 32 5   101.56     LegendNANA
22:00 4.7 3.7 93 30 4   101.62     LegendNANA
23:00 2.7 2.0 95 31 2   101.66     LegendNANA

Notes on Data Quality.

Legend

  • E = Estimated
  • M = Missing
  • NA = Not Available
  • ‡ = Partner data that is not subject to review by the National Climate Archives
Date modified: